| time (UTC) | temp C | wind direction | speed KPH | gust KPH | rain 1hr cm | rain 24hr cm | rain mn cm | humidity % | barometer mb |
| 20260507080004 | 1 | 95 | 3.2 | 8.0 | 0.00 | 0.00 | 0.00 | 76 | 1018.3 |
| 20260507075004 | 1 | 147 | 4.8 | 8.0 | 0.00 | 0.00 | 0.00 | 74 | 1018.4 |
| 20260507073004 | 2 | 104 | 3.2 | 4.8 | 0.00 | 0.00 | 0.00 | 71 | 1018.5 |
| 20260507065004 | 3 | 128 | 3.2 | 8.0 | 0.00 | 0.00 | 0.00 | 66 | 1018.9 |
| 20260507064004 | 2 | 92 | 3.2 | 8.0 | 0.00 | 0.00 | 0.00 | 65 | 1019.1 |
| 20260507063004 | 3 | 129 | 3.2 | 8.0 | 0.00 | 0.00 | 0.00 | 65 | 1019.1 |
| 20260507061004 | 3 | 112 | 3.2 | 4.8 | 0.00 | 0.00 | 0.00 | 65 | 1019.3 |
| 20260507060004 | 3 | 119 | 3.2 | 4.8 | 0.00 | 0.00 | 0.00 | 62 | 1019.4 |
| 20260507055004 | 4 | 102 | 1.6 | 3.2 | 0.00 | 0.00 | 0.00 | 60 | 1019.4 |
| 20260507054003 | 4 | 263 | 1.6 | 8.0 | 0.00 | 0.00 | 0.00 | 59 | 1019.6 |
| 20260507053004 | 4 | 255 | 1.6 | 8.0 | 0.00 | 0.00 | 0.00 | 59 | 1019.9 |
| 20260507052004 | 5 | 317 | 1.6 | 4.8 | 0.00 | 0.00 | 0.00 | 59 | 1019.7 |
| 20260507051004 | 5 | 227 | 3.2 | 8.0 | 0.00 | 0.00 | 0.00 | 59 | 1019.8 |
| 20260507050004 | 5 | 226 | 3.2 | 4.8 | 0.00 | 0.00 | 0.00 | 59 | 1019.9 |
| 20260507045004 | 5 | 285 | 1.6 | 9.7 | 0.00 | 0.00 | 0.00 | 60 | 1019.8 |
| 20260507043004 | 5 | 267 | 4.8 | 9.7 | 0.00 | 0.00 | 0.00 | 59 | 1019.6 |
| 20260507042003 | 5 | 330 | 4.8 | 8.0 | 0.00 | 0.00 | 0.00 | 60 | 1019.5 |
| 20260507040004 | 5 | 286 | 4.8 | 12.9 | 0.00 | 0.00 | 0.00 | 58 | 1019.5 |
| 20260507035004 | 5 | 313 | 3.2 | 9.7 | 0.00 | 0.00 | 0.00 | 58 | 1019.5 |
| 20260507034004 | 5 | 286 | 3.2 | 9.7 | 0.00 | 0.00 | 0.00 | 59 | 1019.5 |
| 20260507033003 | 5 | 285 | 3.2 | 11.3 | 0.00 | 0.00 | 0.00 | 59 | 1019.4 |
| 20260507032004 | 5 | 307 | 4.8 | 12.9 | 0.00 | 0.00 | 0.00 | 60 | 1019.3 |
| 20260507031004 | 5 | 317 | 3.2 | 11.3 | 0.00 | 0.00 | 0.00 | 59 | 1019.5 |
| 20260507025004 | 6 | 219 | 3.2 | 12.9 | 0.00 | 0.00 | 0.00 | 56 | 1019.5 |
| 20260507024004 | 6 | 184 | 3.2 | 11.3 | 0.00 | 0.00 | 0.00 | 56 | 1019.3 |
| 20260507023004 | 6 | 312 | 8.0 | 16.1 | 0.00 | 0.00 | 0.00 | 54 | 1019.2 |
| 20260507022004 | 6 | 287 | 8.0 | 12.9 | 0.00 | 0.00 | 0.00 | 53 | 1019.1 |
| 20260507021004 | 6 | 292 | 14.5 | 27.4 | 0.00 | 0.00 | 0.00 | 51 | 1019.1 |
| 20260507020003 | 6 | 298 | 11.3 | 20.9 | 0.00 | 0.00 | 0.00 | 51 | 1019.0 |
| 20260507014004 | 6 | 287 | 9.7 | 19.3 | 0.00 | 0.00 | 0.00 | 52 | 1018.8 |
| 20260507013004 | 7 | 278 | 4.8 | 12.9 | 0.00 | 0.00 | 0.00 | 51 | 1018.5 |
| 20260507011004 | 7 | 297 | 8.0 | 16.1 | 0.00 | 0.00 | 0.00 | 49 | 1018.5 |
| 20260507010004 | 7 | 262 | 6.4 | 25.7 | 0.00 | 0.00 | 0.00 | 47 | 1018.3 |
| 20260507005004 | 8 | 279 | 17.7 | 25.7 | 0.00 | 0.00 | 0.00 | 46 | 1018.2 |
| 20260507004004 | 8 | 288 | 9.7 | 40.2 | 0.00 | 0.00 | 0.00 | 45 | 1018.1 |
| 20260507002003 | 9 | 276 | 8.0 | 27.4 | 0.00 | 0.00 | 0.00 | 44 | 1018.1 |
| 20260507001002 | 9 | 266 | 17.7 | 38.6 | 0.00 | 0.00 | 0.00 | 43 | 1018.0 |
| 20260507000003 | 10 | 298 | 11.3 | 33.8 | 0.00 | 0.00 | 0.00 | 43 | 1018.0 |
| 20260506235003 | 9 | 299 | 17.7 | 37.0 | 0.00 | 0.00 | 0.00 | 43 | 1017.7 |
| 20260506234002 | 10 | 268 | 19.3 | 33.8 | 0.00 | 0.00 | 0.00 | 42 | 1017.7 |
| 20260506233002 | 10 | 307 | 20.9 | 32.2 | 0.00 | 0.00 | 0.00 | 42 | 1017.8 |
| 20260506232003 | 10 | 261 | 8.0 | 24.1 | 0.00 | 0.00 | 0.00 | 43 | 1017.7 |
| 20260506231003 | 10 | 279 | 12.9 | 27.4 | 0.00 | 0.00 | 0.00 | 42 | 1017.8 |
| 20260506230002 | 10 | 266 | 16.1 | 35.4 | 0.00 | 0.00 | 0.00 | 41 | 1017.6 |
| 20260506225002 | 10 | 284 | 8.0 | 27.4 | 0.00 | 0.00 | 0.00 | 42 | 1017.8 |
| 20260506224003 | 10 | 293 | 16.1 | 32.2 | 0.00 | 0.00 | 0.00 | 39 | 1017.6 |
| 20260506223002 | 10 | 277 | 14.5 | 38.6 | 0.00 | 0.00 | 0.00 | 42 | 1017.6 |
| 20260506222002 | 10 | 267 | 16.1 | 27.4 | 0.00 | 0.00 | 0.00 | 41 | 1017.6 |
| 20260506221002 | 10 | 269 | 9.7 | 25.7 | 0.00 | 0.00 | 0.00 | 42 | 1017.5 |
| 20260506220003 | 10 | 303 | 11.3 | 24.1 | 0.00 | 0.00 | 0.00 | 42 | 1017.7 |
| 20260506215003 | 10 | 290 | 6.4 | 24.1 | 0.00 | 0.00 | 0.00 | 42 | 1017.6 |
| 20260506214002 | 10 | 270 | 9.7 | 29.0 | 0.00 | 0.00 | 0.00 | 42 | 1017.6 |
| 20260506213003 | 10 | 292 | 14.5 | 25.7 | 0.00 | 0.00 | 0.00 | 42 | 1017.7 |
| 20260506212003 | 10 | 267 | 6.4 | 24.1 | 0.00 | 0.00 | 0.00 | 42 | 1017.6 |
| 20260506211002 | 10 | 301 | 11.3 | 25.7 | 0.00 | 0.00 | 0.00 | 42 | 1017.6 |
| 20260506210003 | 10 | 306 | 16.1 | 27.4 | 0.00 | 0.00 | 0.00 | 43 | 1017.6 |
| 20260506205003 | 10 | 280 | 14.5 | 32.2 | 0.00 | 0.00 | 0.00 | 43 | 1017.7 |
| 20260506204003 | 10 | 306 | 8.0 | 29.0 | 0.00 | 0.00 | 0.00 | 43 | 1017.8 |
| 20260506203002 | 10 | 287 | 11.3 | 25.7 | 0.00 | 0.00 | 0.00 | 45 | 1017.7 |
| 20260506202002 | 10 | 312 | 14.5 | 27.4 | 0.00 | 0.00 | 0.00 | 44 | 1017.8 |
| 20260506201003 | 10 | 311 | 8.0 | 20.9 | 0.00 | 0.00 | 0.00 | 45 | 1018.0 |
| 20260506200003 | 10 | 262 | 12.9 | 22.5 | 0.00 | 0.00 | 0.00 | 44 | 1018.0 |
| 20260506195003 | 10 | 266 | 9.7 | 25.7 | 0.00 | 0.00 | 0.00 | 45 | 1018.2 |
| 20260506194003 | 10 | 240 | 9.7 | 25.7 | 0.00 | 0.00 | 0.00 | 45 | 1018.0 |
| 20260506193003 | 10 | 300 | 4.8 | 19.3 | 0.00 | 0.00 | 0.00 | 44 | 1018.0 |
| 20260506192003 | 10 | 264 | 4.8 | 33.8 | 0.00 | 0.00 | 0.00 | 45 | 1018.2 |
| 20260506191003 | 10 | 281 | 11.3 | 19.3 | 0.00 | 0.00 | 0.00 | 45 | 1018.1 |
| 20260506190003 | 9 | 237 | 9.7 | 25.7 | 0.00 | 0.00 | 0.00 | 46 | 1018.4 |
| 20260506185002 | 9 | 340 | 6.4 | 22.5 | 0.00 | 0.00 | 0.00 | 46 | 1018.4 |
| 20260506184002 | 9 | 299 | 14.5 | 27.4 | 0.00 | 0.00 | 0.00 | 46 | 1018.3 |
| 20260506183002 | 9 | 297 | 19.3 | 29.0 | 0.00 | 0.00 | 0.00 | 47 | 1018.3 |
| 20260506182002 | 10 | 283 | 9.7 | 24.1 | 0.00 | 0.00 | 0.00 | 44 | 1018.4 |
| 20260506180003 | 9 | 252 | 6.4 | 25.7 | 0.00 | 0.00 | 0.00 | 47 | 1018.5 |
| 20260506175003 | 9 | 186 | 4.8 | 24.1 | 0.00 | 0.00 | 0.00 | 46 | 1018.6 |
| 20260506174003 | 9 | 321 | 11.3 | 19.3 | 0.00 | 0.00 | 0.00 | 48 | 1018.7 |
| 20260506172002 | 8 | 351 | 9.7 | 20.9 | 0.00 | 0.00 | 0.00 | 49 | 1019.1 |
| 20260506171003 | 9 | 301 | 6.4 | 16.1 | 0.00 | 0.00 | 0.00 | 49 | 1018.9 |
| 20260506170002 | 8 | 297 | 8.0 | 20.9 | 0.00 | 0.00 | 0.00 | 51 | 1019.0 |
| 20260506165003 | 8 | 358 | 6.4 | 11.3 | 0.00 | 0.00 | 0.00 | 50 | 1018.9 |
| 20260506164003 | 8 | 203 | 4.8 | 12.9 | 0.00 | 0.00 | 0.00 | 49 | 1018.9 |
| 20260506163003 | 8 | 183 | 6.4 | 16.1 | 0.00 | 0.00 | 0.00 | 51 | 1019.1 |
| 20260506162002 | 8 | 170 | 4.8 | 11.3 | 0.00 | 0.00 | 0.00 | 52 | 1019.0 |
| 20260506161003 | 8 | 159 | 3.2 | 14.5 | 0.00 | 0.00 | 0.00 | 52 | 1019.2 |
| 20260506160003 | 9 | 292 | 4.8 | 14.5 | 0.00 | 0.00 | 0.00 | 50 | 1019.4 |
| 20260506154003 | 9 | 125 | 6.4 | 12.9 | 0.00 | 0.00 | 0.00 | 54 | 1019.2 |
| 20260506153002 | 9 | 170 | 4.8 | 9.7 | 0.00 | 0.00 | 0.00 | 55 | 1019.5 |
| 20260506152003 | 8 | 302 | 8.0 | 12.9 | 0.00 | 0.00 | 0.00 | 56 | 1019.3 |
| 20260506151003 | 8 | 147 | 6.4 | 12.9 | 0.00 | 0.00 | 0.00 | 57 | 1019.3 |
| 20260506150003 | 7 | 285 | 4.8 | 9.7 | 0.00 | 0.00 | 0.00 | 60 | 1019.1 |
| 20260506145003 | 7 | 182 | 3.2 | 9.7 | 0.00 | 0.00 | 0.00 | 60 | 1019.3 |
| 20260506144002 | 7 | 64 | 4.8 | 14.5 | 0.00 | 0.00 | 0.00 | 62 | 1019.1 |
| 20260506143003 | 7 | 65 | 4.8 | 9.7 | 0.00 | 0.00 | 0.00 | 59 | 1019.3 |
| 20260506142003 | 7 | 139 | 4.8 | 12.9 | 0.00 | 0.00 | 0.00 | 63 | 1019.2 |
| 20260506141002 | 7 | 111 | 9.7 | 12.9 | 0.00 | 0.00 | 0.00 | 62 | 1019.2 |
| 20260506135002 | 6 | 78 | 4.8 | 14.5 | 0.00 | 0.00 | 0.00 | 64 | 1019.1 |
| 20260506134002 | 6 | 84 | 6.4 | 11.3 | 0.00 | 0.00 | 0.00 | 69 | 1019.0 |
| 20260506133002 | 5 | 148 | 4.8 | 11.3 | 0.00 | 0.00 | 0.00 | 73 | 1018.9 |
| 20260506132003 | 5 | 63 | 4.8 | 8.0 | 0.00 | 0.00 | 0.00 | 74 | 1019.0 |
| 20260506131002 | 5 | 85 | 6.4 | 12.9 | 0.00 | 0.00 | 0.00 | 75 | 1018.9 |
| 20260506130003 | 4 | 40 | 8.0 | 11.3 | 0.00 | 0.00 | 0.00 | 75 | 1018.9 |
| 20260506125002 | 3 | 57 | 8.0 | 9.7 | 0.00 | 0.00 | 0.00 | 79 | 1018.8 |
| 20260506124003 | 3 | 9 | 4.8 | 9.7 | 0.00 | 0.00 | 0.00 | 80 | 1018.6 |
| 20260506123003 | 3 | 92 | 6.4 | 9.7 | 0.00 | 0.00 | 0.00 | 82 | 1018.4 |
| 20260506122003 | 3 | 73 | 4.8 | 8.0 | 0.00 | 0.00 | 0.00 | 83 | 1018.3 |
| 20260506121003 | 2 | 82 | 3.2 | 8.0 | 0.00 | 0.00 | 0.00 | 85 | 1018.2 |
| 20260506115003 | 2 | 80 | 3.2 | 11.3 | 0.00 | 0.00 | 0.00 | 88 | 1018.4 |
| 20260506113002 | 1 | 53 | 4.8 | 8.0 | 0.00 | 0.00 | 0.00 | 91 | 1018.1 |
| 20260506112003 | 1 | 278 | 3.2 | 9.7 | 0.00 | 0.00 | 0.00 | 92 | 1018.0 |
| 20260506111003 | 0 | 239 | 3.2 | 8.0 | 0.00 | 0.00 | 0.00 | 93 | 1017.6 |
| 20260506110002 | 0 | 17 | 3.2 | 9.7 | 0.00 | 0.00 | 0.00 | 93 | 1017.5 |
| 20260506104003 | 0 | 94 | 3.2 | 4.8 | 0.00 | 0.00 | 0.00 | 94 | 1017.4 |
| 20260506103003 | 0 | 96 | 3.2 | 4.8 | 0.00 | 0.00 | 0.00 | 93 | 1017.3 |
| 20260506102002 | 0 | 99 | 3.2 | 4.8 | 0.00 | 0.00 | 0.00 | 93 | 1017.3 |
| 20260506101003 | 0 | 139 | 3.2 | 3.2 | 0.00 | 0.00 | 0.00 | 93 | 1017.3 |
| 20260506095003 | 0 | 104 | 3.2 | 3.2 | 0.00 | 0.00 | 0.00 | 91 | 1017.3 |
| 20260506094002 | 0 | 76 | 1.6 | 3.2 | 0.00 | 0.00 | 0.00 | 91 | 1017.1 |
| 20260506093002 | 1 | 62 | 1.6 | 3.2 | 0.00 | 0.00 | 0.00 | 90 | 1017.2 |
| 20260506092003 | 1 | 80 | 3.2 | 4.8 | 0.00 | 0.00 | 0.00 | 90 | 1017.3 |
| 20260506091003 | 1 | 77 | 3.2 | 4.8 | 0.00 | 0.00 | 0.00 | 90 | 1017.3 |
| 20260506090003 | 1 | 78 | 3.2 | 4.8 | 0.00 | 0.00 | 0.00 | 89 | 1017.4 |
| 20260506085002 | 1 | 85 | 3.2 | 4.8 | 0.00 | 0.00 | 0.00 | 88 | 1017.4 |
| 20260506084002 | 1 | 81 | 3.2 | 8.0 | 0.00 | 0.00 | 0.00 | 87 | 1017.1 |
| 20260506083003 | 2 | 87 | 4.8 | 8.0 | 0.00 | 0.00 | 0.00 | 86 | 1017.1 |
| 20260506082003 | 2 | 80 | 8.0 | 8.0 | 0.00 | 0.00 | 0.00 | 86 | 1017.0 |
| 20260506081003 | 2 | 91 | 4.8 | 8.0 | 0.00 | 0.00 | 0.00 | 85 | 1016.8 |